Location: Edinburgh
(55.9500°N, 3.1600°W)
Time: 20:34:38
(UTC+01:00)

First-Move - Visible Passes

Search period start: 22 October 2019 00:00
Search period end: 31 October 2019 23:00
Orbit: 578 x 669 km, 97.6° (Epoch: 22 October)

Date Brightness Start Highest point End Pass type
(mag) Time Alt. Az. Time Alt. Az. Time Alt. Az.
22 Oct ? 06:51:26 10° NE 06:55:15 26° E 06:59:06 10° SSE visible
22 Oct ? 19:30:35 10° SSW 19:34:14 28° W 19:38:00 10° NNW visible
23 Oct ? 07:09:27 10° NNE 07:13:40 36° E 07:17:55 10° SSE visible
23 Oct ? 19:49:32 10° SW 19:52:41 20° W 19:55:56 10° NW visible
24 Oct ? 18:30:00 10° SSE 18:34:15 88° WSW 18:38:41 10° NNW visible
24 Oct ? 20:08:51 10° WSW 20:11:12 14° W 20:13:36 10° NW visible
25 Oct ? 06:11:16 10° NE 06:13:21 13° E 06:15:26 10° ESE visible
25 Oct ? 18:48:20 10° S 18:52:33 62° W 18:56:56 10° NNW visible
26 Oct ? 06:28:44 10° NE 06:31:53 18° E 06:35:01 10° SE visible
26 Oct ? 19:06:49 10° S 19:10:53 43° W 19:15:07 10° NNW visible
27 Oct ? 05:46:35 10° NE 05:50:22 25° E 05:54:08 10° SSE visible
27 Oct ? 18:25:29 10° SSW 18:29:18 30° W 18:33:13 10° NNW visible
28 Oct ? 06:04:36 10° NNE 06:08:47 34° E 06:12:58 10° SSE visible
28 Oct ? 18:44:21 10° SW 18:47:44 22° W 18:51:12 10° NW visible
29 Oct ? 06:22:43 10° NNE 06:27:10 47° E 06:31:37 10° S visible
29 Oct ? 17:25:01 10° SSE 17:29:21 86° ENE 17:33:50 10° NNW visible
29 Oct ? 19:03:33 10° SW 19:06:14 16° W 19:08:58 10° NW visible
30 Oct ? 05:06:38 10° ENE 05:08:25 12° E 05:10:12 10° ESE visible
30 Oct ? 17:43:19 10° S 17:47:38 67° WSW 17:52:06 10° NNW visible
30 Oct ? 19:23:24 10° W 19:24:46 11° W 19:26:09 10° WNW visible
31 Oct ? 05:23:58 10° NE 05:26:58 17° E 05:29:56 10° SE visible
31 Oct ? 18:01:46 10° S 18:05:57 47° W 18:10:18 10° NNW visible
